| time (UTC) | temp C | wind direction | speed KPH | gust KPH | rain 1hr cm | rain 24hr cm | rain mn cm | humidity % | barometer mb |
| 20260510113008 | 18 | 119 | 0.0 | 0.0 | 0.00 | 0.13 | 0.00 | 96 | 1015.1 |
| 20260510112007 | 18 | 119 | 0.0 | 0.0 | 0.00 | 0.13 | 0.00 | 95 | 1015.0 |
| 20260510111507 | 18 | 119 | 0.0 | 0.0 | 0.00 | 0.13 | 0.00 | 95 | 1014.9 |
| 20260510111008 | 18 | 119 | 0.0 | 0.0 | 0.00 | 0.13 | 0.00 | 95 | 1014.9 |
| 20260510110506 | 18 | 119 | 0.0 | 0.0 | 0.00 | 0.13 | 0.00 | 95 | 1014.9 |
| 20260510110008 | 18 | 119 | 0.0 | 0.0 | 0.00 | 0.13 | 0.00 | 95 | 1015.0 |
| 20260510105008 | 18 | 119 | 0.0 | 0.0 | 0.00 | 0.13 | 0.00 | 95 | 1015.1 |
| 20260510104509 | 18 | 119 | 0.0 | 0.0 | 0.00 | 0.13 | 0.00 | 95 | 1015.2 |
| 20260510104010 | 18 | 119 | 0.0 | 0.0 | 0.00 | 0.13 | 0.00 | 95 | 1015.2 |
| 20260510103010 | 18 | 119 | 0.0 | 0.0 | 0.00 | 0.13 | 0.00 | 95 | 1014.8 |
| 20260510102507 | 18 | 119 | 0.0 | 0.0 | 0.00 | 0.13 | 0.00 | 95 | 1014.8 |
| 20260510102008 | 18 | 119 | 0.0 | 0.0 | 0.00 | 0.13 | 0.00 | 95 | 1014.9 |
| 20260510101509 | 18 | 119 | 0.0 | 0.0 | 0.00 | 0.13 | 0.00 | 95 | 1014.9 |
| 20260510101008 | 18 | 119 | 0.0 | 0.0 | 0.00 | 0.13 | 0.00 | 95 | 1014.8 |
| 20260510100508 | 18 | 119 | 0.0 | 0.0 | 0.00 | 0.13 | 0.00 | 95 | 1014.4 |
| 20260510100009 | 18 | 119 | 0.0 | 0.0 | 0.00 | 0.13 | 0.00 | 95 | 1014.2 |
| 20260510094509 | 18 | 119 | 0.0 | 0.0 | 0.00 | 1.12 | 0.00 | 95 | 1014.0 |
| 20260510094008 | 18 | 119 | 0.0 | 0.0 | 0.00 | 1.12 | 0.00 | 95 | 1013.8 |
| 20260510093009 | 18 | 119 | 0.0 | 0.0 | 0.00 | 1.12 | 0.00 | 95 | 1013.7 |
| 20260510092508 | 18 | 119 | 0.0 | 0.0 | 0.00 | 1.12 | 0.00 | 95 | 1013.6 |
| 20260510092010 | 18 | 119 | 0.0 | 0.0 | 0.00 | 1.12 | 0.00 | 95 | 1013.5 |
| 20260510091510 | 18 | 119 | 0.0 | 0.0 | 0.00 | 1.12 | 0.00 | 95 | 1013.4 |
| 20260510091008 | 18 | 108 | 0.0 | 0.0 | 0.00 | 1.12 | 0.00 | 95 | 1013.3 |
| 20260510090008 | 18 | 107 | 0.0 | 0.0 | 0.00 | 1.24 | 0.00 | 95 | 1013.3 |
| 20260510085507 | 18 | 138 | 0.0 | 0.0 | 0.00 | 1.24 | 0.00 | 95 | 1013.1 |
| 20260510085007 | 18 | 190 | 0.0 | 0.0 | 0.00 | 1.24 | 0.00 | 95 | 1013.0 |
| 20260510084008 | 18 | 192 | 0.0 | 0.0 | 0.00 | 1.24 | 0.00 | 95 | 1012.9 |
| 20260510083505 | 18 | 192 | 0.0 | 0.0 | 0.00 | 1.24 | 0.00 | 95 | 1012.7 |
| 20260510082506 | 18 | 229 | 0.0 | 0.0 | 0.00 | 1.24 | 0.00 | 95 | 1012.8 |
| 20260510082008 | 18 | 229 | 0.0 | 0.0 | 0.00 | 1.24 | 0.00 | 95 | 1012.7 |
| 20260510081506 | 18 | 229 | 0.0 | 0.0 | 0.00 | 1.24 | 0.00 | 95 | 1012.7 |
| 20260510081007 | 18 | 259 | 0.0 | 0.0 | 0.00 | 1.24 | 0.00 | 95 | 1012.7 |
| 20260510080506 | 18 | 259 | 0.0 | 0.0 | 0.00 | 1.24 | 0.00 | 95 | 1012.8 |
| 20260510080009 | 18 | 193 | 0.0 | 0.0 | 0.00 | 1.24 | 0.00 | 95 | 1013.0 |
| 20260510075008 | 18 | 187 | 0.0 | 0.0 | 0.00 | 1.24 | 0.00 | 95 | 1012.9 |
| 20260510074507 | 18 | 186 | 0.0 | 0.0 | 0.00 | 1.24 | 0.00 | 95 | 1012.5 |
| 20260510074009 | 18 | 187 | 0.0 | 0.0 | 0.00 | 1.24 | 0.00 | 95 | 1012.8 |
| 20260510073508 | 18 | 229 | 0.0 | 0.0 | 0.00 | 1.24 | 0.00 | 95 | 1012.6 |
| 20260510073010 | 18 | 229 | 0.0 | 0.0 | 0.00 | 1.24 | 0.00 | 95 | 1012.6 |
| 20260510072507 | 18 | 107 | 0.0 | 1.6 | 0.00 | 1.24 | 0.00 | 95 | 1012.6 |
| 20260510072008 | 19 | 98 | 0.0 | 4.8 | 0.00 | 1.24 | 0.00 | 95 | 1012.7 |
| 20260510071008 | 18 | 238 | 0.0 | 4.8 | 0.00 | 1.24 | 0.00 | 95 | 1012.5 |
| 20260510070509 | 18 | 178 | 0.0 | 4.8 | 0.00 | 1.24 | 0.00 | 95 | 1012.5 |
| 20260510070009 | 18 | 179 | 1.6 | 6.4 | 0.00 | 1.24 | 0.00 | 95 | 1012.6 |
| 20260510065506 | 18 | 140 | 1.6 | 9.7 | 0.00 | 1.24 | 0.00 | 95 | 1012.6 |
| 20260510065006 | 18 | 106 | 0.0 | 6.4 | 0.00 | 1.24 | 0.00 | 95 | 1012.7 |
| 20260510064507 | 18 | 189 | 0.0 | 1.6 | 0.00 | 1.24 | 0.00 | 95 | 1012.8 |
| 20260510064006 | 18 | 188 | 0.0 | 3.2 | 0.00 | 1.24 | 0.00 | 95 | 1012.6 |
| 20260510063508 | 18 | 157 | 0.0 | 3.2 | 0.00 | 1.24 | 0.00 | 95 | 1012.6 |
| 20260510063008 | 18 | 132 | 0.0 | 1.6 | 0.00 | 1.24 | 0.00 | 95 | 1012.6 |
| 20260510062505 | 18 | 242 | 0.0 | 3.2 | 0.00 | 1.24 | 0.00 | 95 | 1012.5 |
| 20260510062009 | 18 | 242 | 1.6 | 4.8 | 0.00 | 1.24 | 0.00 | 95 | 1012.6 |
| 20260510061008 | 18 | 225 | 0.0 | 6.4 | 0.00 | 1.24 | 0.00 | 96 | 1012.7 |
| 20260510060506 | 18 | 98 | 0.0 | 0.0 | 0.00 | 1.24 | 0.00 | 96 | 1012.6 |
| 20260510060012 | 18 | 99 | 0.0 | 3.2 | 0.00 | 1.24 | 0.00 | 96 | 1012.5 |
| 20260510055510 | 18 | 99 | 0.0 | 3.2 | 0.00 | 1.24 | 0.00 | 96 | 1012.6 |
| 20260510054508 | 18 | 113 | 0.0 | 0.0 | 0.00 | 1.24 | 0.00 | 95 | 1012.5 |
| 20260510054009 | 18 | 113 | 0.0 | 0.0 | 0.00 | 1.24 | 0.00 | 95 | 1012.6 |
| 20260510053511 | 18 | 113 | 0.0 | 0.0 | 0.00 | 1.24 | 0.00 | 95 | 1012.5 |
| 20260510053010 | 18 | 113 | 0.0 | 0.0 | 0.00 | 1.24 | 0.00 | 95 | 1012.7 |
| 20260510052510 | 18 | 113 | 0.0 | 0.0 | 0.00 | 1.24 | 0.00 | 95 | 1012.7 |
| 20260510052011 | 18 | 113 | 0.0 | 0.0 | 0.00 | 1.24 | 0.00 | 95 | 1012.8 |
| 20260510051011 | 18 | 113 | 0.0 | 0.0 | 0.00 | 1.24 | 0.00 | 95 | 1012.7 |
| 20260510050510 | 18 | 113 | 0.0 | 0.0 | 0.00 | 1.24 | 0.00 | 95 | 1012.6 |
| 20260510050010 | 18 | 113 | 0.0 | 0.0 | 0.00 | 1.24 | 1.24 | 95 | 1012.7 |
| 20260510045507 | 18 | 113 | 0.0 | 0.0 | 0.00 | 1.24 | 1.24 | 95 | 1012.6 |
| 20260510045010 | 18 | 113 | 0.0 | 0.0 | 0.00 | 1.24 | 1.24 | 95 | 1012.8 |
| 20260510044009 | 18 | 128 | 0.0 | 0.0 | 0.00 | 1.24 | 1.24 | 95 | 1012.7 |
| 20260510043509 | 18 | 128 | 0.0 | 0.0 | 0.00 | 1.24 | 1.24 | 95 | 1012.8 |
| 20260510043010 | 18 | 128 | 0.0 | 0.0 | 0.00 | 1.24 | 1.24 | 95 | 1012.9 |
| 20260510042010 | 18 | 128 | 0.0 | 0.0 | 0.00 | 1.24 | 1.24 | 95 | 1012.8 |
| 20260510041508 | 18 | 128 | 0.0 | 0.0 | 0.00 | 1.24 | 1.24 | 95 | 1012.8 |
| 20260510041008 | 18 | 128 | 0.0 | 0.0 | 0.00 | 1.24 | 1.24 | 95 | 1012.8 |
| 20260510040507 | 18 | 128 | 0.0 | 0.0 | 0.00 | 1.24 | 1.24 | 95 | 1012.8 |
| 20260510040010 | 18 | 128 | 0.0 | 0.0 | 0.00 | 1.24 | 1.24 | 95 | 1012.8 |
| 20260510035008 | 18 | 144 | 0.0 | 0.0 | 0.00 | 1.24 | 1.24 | 95 | 1012.9 |
| 20260510034508 | 18 | 144 | 0.0 | 0.0 | 0.00 | 1.24 | 1.24 | 95 | 1013.0 |
| 20260510034010 | 18 | 144 | 0.0 | 4.8 | 0.00 | 1.24 | 1.24 | 95 | 1013.0 |
| 20260510033011 | 18 | 196 | 0.0 | 4.8 | 0.00 | 1.24 | 1.24 | 95 | 1012.9 |
| 20260510032508 | 18 | 153 | 0.0 | 4.8 | 0.00 | 1.24 | 1.24 | 95 | 1012.8 |
| 20260510032008 | 18 | 128 | 0.0 | 4.8 | 0.00 | 1.24 | 1.24 | 94 | 1012.7 |
| 20260510031508 | 18 | 128 | 0.0 | 4.8 | 0.00 | 1.24 | 1.24 | 94 | 1012.7 |
| 20260510031008 | 18 | 58 | 0.0 | 0.0 | 0.00 | 1.24 | 1.24 | 94 | 1012.6 |
| 20260510030508 | 18 | 75 | 0.0 | 0.0 | 0.00 | 1.24 | 1.24 | 94 | 1012.5 |
| 20260510030010 | 18 | 75 | 0.0 | 0.0 | 0.00 | 1.24 | 1.24 | 94 | 1012.4 |
| 20260510025507 | 18 | 75 | 0.0 | 0.0 | 0.00 | 1.24 | 1.24 | 94 | 1012.4 |
| 20260510025012 | 18 | 74 | 0.0 | 0.0 | 0.00 | 1.24 | 1.24 | 94 | 1012.4 |
| 20260510024010 | 18 | 75 | 0.0 | 0.0 | 0.00 | 1.24 | 1.24 | 94 | 1012.5 |
| 20260510023509 | 18 | 75 | 0.0 | 0.0 | 0.00 | 1.24 | 1.24 | 94 | 1012.4 |
| 20260510023010 | 18 | 75 | 0.0 | 0.0 | 0.00 | 1.24 | 1.24 | 94 | 1012.4 |
| 20260510022509 | 18 | 75 | 0.0 | 0.0 | 0.00 | 1.24 | 1.24 | 94 | 1012.6 |
| 20260510022009 | 18 | 75 | 0.0 | 0.0 | 0.00 | 1.24 | 1.24 | 94 | 1012.4 |
| 20260510021010 | 18 | 75 | 0.0 | 0.0 | 0.00 | 1.24 | 1.24 | 94 | 1012.3 |
| 20260510020508 | 18 | 75 | 0.0 | 0.0 | 0.00 | 1.24 | 1.24 | 94 | 1012.2 |
| 20260510020011 | 19 | 75 | 0.0 | 0.0 | 0.00 | 1.24 | 1.24 | 94 | 1012.1 |
| 20260510015507 | 19 | 75 | 0.0 | 0.0 | 0.00 | 1.24 | 1.24 | 94 | 1012.2 |
| 20260510015009 | 19 | 75 | 0.0 | 0.0 | 0.00 | 1.24 | 1.24 | 94 | 1012.1 |
| 20260510014508 | 19 | 75 | 0.0 | 0.0 | 0.00 | 1.24 | 1.24 | 93 | 1012.1 |
| 20260510014010 | 19 | 75 | 0.0 | 0.0 | 0.00 | 1.24 | 1.24 | 93 | 1011.9 |
| 20260510013509 | 19 | 75 | 0.0 | 0.0 | 0.00 | 1.24 | 1.24 | 93 | 1011.9 |
| 20260510013009 | 19 | 74 | 0.0 | 0.0 | 0.00 | 1.24 | 1.24 | 93 | 1011.8 |
| 20260510012507 | 19 | 75 | 0.0 | 0.0 | 0.00 | 1.24 | 1.24 | 93 | 1011.6 |
| 20260510012008 | 19 | 75 | 0.0 | 0.0 | 0.00 | 1.24 | 1.24 | 93 | 1011.4 |
| 20260510011508 | 19 | 75 | 0.0 | 3.2 | 0.00 | 1.24 | 1.24 | 93 | 1011.4 |
| 20260510011009 | 19 | 75 | 0.0 | 3.2 | 0.00 | 1.24 | 1.24 | 93 | 1011.5 |
| 20260510010508 | 20 | 75 | 0.0 | 1.6 | 0.00 | 1.24 | 1.24 | 93 | 1011.5 |
| 20260510005507 | 20 | 101 | 0.0 | 0.0 | 0.00 | 1.24 | 1.24 | 93 | 1011.1 |
| 20260510005008 | 20 | 101 | 0.0 | 1.6 | 0.00 | 1.24 | 1.24 | 93 | 1011.2 |
| 20260510004508 | 20 | 101 | 0.0 | 3.2 | 0.00 | 1.24 | 1.24 | 93 | 1011.1 |
| 20260510004009 | 20 | 101 | 0.0 | 3.2 | 0.00 | 1.24 | 1.24 | 93 | 1011.2 |
| 20260510003507 | 20 | 105 | 0.0 | 3.2 | 0.00 | 1.24 | 1.24 | 93 | 1011.3 |
| 20260510003008 | 20 | 114 | 0.0 | 0.0 | 0.00 | 1.24 | 1.24 | 93 | 1011.0 |
| 20260510002508 | 20 | 114 | 0.0 | 0.0 | 0.00 | 1.24 | 1.24 | 93 | 1011.1 |
| 20260510002009 | 20 | 199 | 0.0 | 0.0 | 0.00 | 1.24 | 1.24 | 93 | 1011.2 |
| 20260510001507 | 20 | 199 | 0.0 | 0.0 | 0.00 | 1.24 | 1.24 | 93 | 1011.2 |
| 20260510001008 | 20 | 199 | 0.0 | 0.0 | 0.00 | 1.24 | 1.24 | 93 | 1011.2 |
| 20260510000507 | 20 | 261 | 0.0 | 0.0 | 0.00 | 1.24 | 1.24 | 93 | 1011.4 |
| 20260510000009 | 20 | 261 | 0.0 | 0.0 | 0.00 | 1.24 | 1.24 | 93 | 1011.5 |
| 20260509235507 | 20 | 261 | 0.0 | 0.0 | 0.00 | 1.24 | 1.24 | 92 | 1011.2 |
| 20260509235008 | 20 | 13 | 0.0 | 0.0 | 0.00 | 1.24 | 1.24 | 92 | 1011.2 |
| 20260509234508 | 20 | 13 | 0.0 | 0.0 | 0.00 | 1.24 | 1.24 | 92 | 1010.9 |
| 20260509234008 | 20 | 124 | 0.0 | 0.0 | 0.00 | 1.24 | 1.24 | 92 | 1010.6 |
| 20260509233009 | 20 | 141 | 0.0 | 1.6 | 0.00 | 1.24 | 1.24 | 91 | 1011.1 |
| 20260509232508 | 20 | 141 | 1.6 | 3.2 | 0.00 | 1.24 | 1.24 | 91 | 1011.4 |
| 20260509232009 | 20 | 141 | 1.6 | 4.8 | 0.00 | 1.24 | 1.24 | 91 | 1011.3 |
| 20260509231509 | 20 | 267 | 1.6 | 6.4 | 0.00 | 1.24 | 1.24 | 91 | 1011.3 |
| 20260509231009 | 20 | 161 | 3.2 | 6.4 | 0.00 | 1.24 | 1.24 | 91 | 1011.1 |
| 20260509230508 | 20 | 170 | 1.6 | 6.4 | 0.00 | 1.24 | 1.24 | 90 | 1011.2 |
| 20260509230013 | 20 | 253 | 3.2 | 12.9 | 0.00 | 1.24 | 1.24 | 91 | 1011.1 |
| 20260509225509 | 20 | 196 | 1.6 | 12.9 | 0.00 | 1.24 | 1.24 | 90 | 1011.0 |
| 20260509224510 | 20 | 219 | 1.6 | 4.8 | 0.00 | 1.24 | 1.24 | 91 | 1011.2 |
| 20260509224010 | 20 | 159 | 1.6 | 4.8 | 0.00 | 1.24 | 1.24 | 92 | 1011.2 |
| 20260509223509 | 20 | 161 | 1.6 | 4.8 | 0.00 | 1.24 | 1.24 | 92 | 1011.1 |
| 20260509223010 | 21 | 261 | 1.6 | 6.4 | 0.00 | 1.24 | 1.24 | 92 | 1011.2 |
| 20260509222509 | 20 | 197 | 1.6 | 12.9 | 0.00 | 1.24 | 1.24 | 91 | 1011.1 |
| 20260509222012 | 21 | 212 | 1.6 | 12.9 | 0.00 | 1.24 | 1.24 | 92 | 1011.2 |
| 20260509221510 | 21 | 126 | 0.0 | 3.2 | 0.00 | 1.24 | 1.24 | 92 | 1011.0 |
| 20260509221011 | 21 | 242 | 0.0 | 3.2 | 0.00 | 1.24 | 1.24 | 92 | 1011.0 |
| 20260509220012 | 21 | 98 | 0.0 | 4.8 | 0.00 | 1.24 | 1.24 | 92 | 1010.9 |
| 20260509215507 | 21 | 88 | 1.6 | 6.4 | 0.00 | 1.24 | 1.24 | 91 | 1010.8 |
| 20260509215009 | 21 | 88 | 0.0 | 6.4 | 0.00 | 1.24 | 1.24 | 91 | 1010.6 |
| 20260509214509 | 21 | 205 | 0.0 | 6.4 | 0.00 | 1.24 | 1.24 | 91 | 1011.0 |
| 20260509214009 | 21 | 130 | 0.0 | 3.2 | 0.00 | 1.24 | 1.24 | 92 | 1010.9 |
| 20260509213508 | 21 | 130 | 0.0 | 3.2 | 0.00 | 1.24 | 1.24 | 92 | 1010.9 |
| 20260509212508 | 21 | 86 | 0.0 | 0.0 | 0.00 | 1.24 | 1.24 | 93 | 1011.0 |
| 20260509212009 | 21 | 86 | 0.0 | 0.0 | 0.00 | 1.24 | 1.24 | 93 | 1011.0 |
| 20260509211508 | 21 | 93 | 0.0 | 0.0 | 0.00 | 1.24 | 1.24 | 93 | 1010.9 |
| 20260509211010 | 21 | 93 | 0.0 | 3.2 | 0.00 | 1.24 | 1.24 | 92 | 1011.1 |
| 20260509210508 | 21 | 88 | 1.6 | 6.4 | 0.00 | 1.24 | 1.24 | 92 | 1011.0 |
| 20260509205508 | 21 | 77 | 0.0 | 3.2 | 0.00 | 1.24 | 1.24 | 93 | 1011.0 |
| 20260509205008 | 21 | 108 | 0.0 | 0.0 | 0.00 | 1.24 | 1.24 | 93 | 1010.9 |
| 20260509204508 | 21 | 111 | 0.0 | 0.0 | 0.03 | 1.24 | 1.24 | 93 | 1011.0 |
| 20260509204008 | 21 | 74 | 0.0 | 0.0 | 0.05 | 1.24 | 1.24 | 93 | 1011.1 |
| 20260509203011 | 21 | 86 | 0.0 | 0.0 | 0.13 | 1.24 | 1.24 | 93 | 1011.2 |
| 20260509202508 | 21 | 104 | 0.0 | 0.0 | 0.13 | 1.24 | 1.24 | 93 | 1011.2 |
| 20260509202008 | 21 | 120 | 0.0 | 0.0 | 0.13 | 1.24 | 1.24 | 93 | 1011.2 |
| 20260509201508 | 21 | 119 | 0.0 | 3.2 | 0.13 | 1.24 | 1.24 | 93 | 1011.2 |
| 20260509201008 | 21 | 120 | 0.0 | 4.8 | 0.13 | 1.24 | 1.24 | 92 | 1011.3 |
| 20260509200508 | 21 | 106 | 0.0 | 3.2 | 0.13 | 1.24 | 1.24 | 92 | 1011.3 |
| 20260509200012 | 21 | 355 | 0.0 | 3.2 | 0.13 | 1.24 | 1.24 | 92 | 1011.3 |
| 20260509195508 | 21 | 355 | 0.0 | 3.2 | 0.13 | 1.24 | 1.24 | 91 | 1011.3 |
| 20260509195009 | 21 | 17 | 1.6 | 8.0 | 0.13 | 1.24 | 1.24 | 90 | 1011.2 |
| 20260509194509 | 21 | 98 | 1.6 | 8.0 | 0.10 | 1.22 | 1.22 | 90 | 1011.2 |
| 20260509194009 | 21 | 111 | 1.6 | 6.4 | 0.08 | 1.19 | 1.19 | 89 | 1011.2 |
| 20260509193508 | 21 | 177 | 1.6 | 6.4 | 0.05 | 1.17 | 1.17 | 90 | 1011.3 |
| 20260509193009 | 21 | 98 | 1.6 | 6.4 | 0.00 | 1.12 | 1.12 | 89 | 1011.2 |
| 20260509192507 | 21 | 108 | 0.0 | 6.4 | 0.00 | 1.12 | 1.12 | 89 | 1011.2 |
| 20260509192009 | 21 | 46 | 0.0 | 0.0 | 0.00 | 1.12 | 1.12 | 89 | 1011.1 |
| 20260509191008 | 21 | 74 | 0.0 | 0.0 | 0.00 | 1.12 | 1.12 | 89 | 1011.0 |
| 20260509190508 | 22 | 62 | 0.0 | 0.0 | 0.00 | 1.12 | 1.12 | 90 | 1011.1 |
| 20260509190010 | 22 | 81 | 0.0 | 0.0 | 0.00 | 1.12 | 1.12 | 90 | 1011.2 |
| 20260509185008 | 22 | 79 | 0.0 | 0.0 | 0.00 | 1.12 | 1.12 | 90 | 1011.1 |
| 20260509184508 | 22 | 57 | 0.0 | 0.0 | 0.00 | 1.12 | 1.12 | 90 | 1011.1 |
| 20260509183507 | 22 | 120 | 0.0 | 0.0 | 0.00 | 1.12 | 1.12 | 89 | 1011.0 |
| 20260509183009 | 22 | 120 | 0.0 | 0.0 | 0.00 | 1.12 | 1.12 | 89 | 1011.1 |
| 20260509182009 | 22 | 124 | 0.0 | 0.0 | 0.00 | 1.12 | 1.12 | 89 | 1011.1 |
| 20260509181509 | 22 | 137 | 0.0 | 0.0 | 0.00 | 1.12 | 1.12 | 89 | 1011.1 |
| 20260509181008 | 22 | 134 | 0.0 | 0.0 | 0.00 | 1.12 | 1.12 | 89 | 1011.1 |
| 20260509180508 | 22 | 99 | 0.0 | 0.0 | 0.00 | 1.12 | 1.12 | 90 | 1011.1 |
| 20260509180009 | 22 | 80 | 0.0 | 0.0 | 0.00 | 1.12 | 1.12 | 90 | 1011.3 |
| 20260509175508 | 22 | 81 | 0.0 | 0.0 | 0.00 | 1.12 | 1.12 | 89 | 1011.2 |
| 20260509175008 | 22 | 81 | 0.0 | 0.0 | 0.00 | 1.12 | 1.12 | 90 | 1011.4 |
| 20260509174507 | 22 | 82 | 0.0 | 0.0 | 0.00 | 1.12 | 1.12 | 90 | 1011.4 |
| 20260509174008 | 22 | 93 | 0.0 | 0.0 | 0.00 | 1.12 | 1.12 | 90 | 1011.4 |
| 20260509173506 | 22 | 110 | 0.0 | 0.0 | 0.00 | 1.12 | 1.12 | 90 | 1011.3 |
| 20260509173009 | 22 | 59 | 0.0 | 0.0 | 0.00 | 1.12 | 1.12 | 91 | 1011.4 |
| 20260509172508 | 22 | 63 | 0.0 | 0.0 | 0.00 | 1.12 | 1.12 | 91 | 1011.5 |
| 20260509171509 | 22 | 166 | 0.0 | 0.0 | 0.00 | 1.12 | 1.12 | 91 | 1011.7 |
| 20260509171008 | 22 | 102 | 0.0 | 0.0 | 0.00 | 1.12 | 1.12 | 92 | 1011.7 |
| 20260509170508 | 21 | 105 | 0.0 | 0.0 | 0.00 | 1.12 | 1.12 | 92 | 1011.7 |
| 20260509170011 | 21 | 108 | 0.0 | 0.0 | 0.00 | 1.12 | 1.12 | 92 | 1011.7 |
| 20260509165506 | 21 | 76 | 0.0 | 0.0 | 0.00 | 1.19 | 1.12 | 93 | 1011.9 |
| 20260509165009 | 21 | 72 | 0.0 | 0.0 | 0.00 | 1.19 | 1.12 | 93 | 1012.0 |
| 20260509164509 | 21 | 72 | 0.0 | 0.0 | 0.00 | 1.19 | 1.12 | 92 | 1012.0 |
| 20260509164009 | 21 | 72 | 0.0 | 0.0 | 0.00 | 1.19 | 1.12 | 92 | 1012.1 |
| 20260509163506 | 21 | 59 | 0.0 | 0.0 | 0.00 | 1.19 | 1.12 | 92 | 1012.0 |
| 20260509162507 | 21 | 54 | 0.0 | 0.0 | 0.00 | 1.19 | 1.12 | 93 | 1011.9 |
| 20260509162009 | 21 | 69 | 0.0 | 0.0 | 0.00 | 1.19 | 1.12 | 93 | 1012.0 |
| 20260509161509 | 21 | 69 | 0.0 | 0.0 | 0.00 | 1.19 | 1.12 | 94 | 1011.8 |
| 20260509161011 | 21 | 70 | 0.0 | 0.0 | 0.00 | 1.19 | 1.12 | 94 | 1011.9 |
| 20260509155506 | 20 | 84 | 0.0 | 0.0 | 0.00 | 1.45 | 1.12 | 94 | 1011.8 |
| 20260509154509 | 20 | 96 | 0.0 | 0.0 | 0.00 | 1.45 | 1.12 | 94 | 1011.7 |
| 20260509154008 | 20 | 96 | 0.0 | 0.0 | 0.00 | 1.45 | 1.12 | 94 | 1011.5 |
| 20260509153508 | 20 | 117 | 0.0 | 0.0 | 0.00 | 1.45 | 1.12 | 95 | 1011.3 |
| 20260509153010 | 20 | 117 | 0.0 | 0.0 | 0.00 | 1.45 | 1.12 | 95 | 1011.4 |
| 20260509152508 | 20 | 116 | 0.0 | 0.0 | 0.00 | 1.45 | 1.12 | 95 | 1011.3 |
| 20260509151508 | 20 | 121 | 0.0 | 0.0 | 0.00 | 1.45 | 1.12 | 95 | 1011.2 |
| 20260509151009 | 20 | 127 | 0.0 | 0.0 | 0.00 | 1.45 | 1.12 | 95 | 1011.2 |
| 20260509150010 | 19 | 127 | 0.0 | 0.0 | 0.00 | 1.45 | 1.12 | 96 | 1011.2 |
| 20260509145506 | 19 | 133 | 0.0 | 0.0 | 0.00 | 1.45 | 1.12 | 96 | 1011.3 |
| 20260509145008 | 19 | 134 | 0.0 | 0.0 | 0.00 | 1.45 | 1.12 | 96 | 1011.2 |
| 20260509144508 | 18 | 134 | 0.0 | 0.0 | 0.00 | 1.45 | 1.12 | 96 | 1011.1 |
| 20260509144007 | 18 | 134 | 0.0 | 0.0 | 0.00 | 1.45 | 1.12 | 96 | 1011.3 |
| 20260509143508 | 18 | 136 | 0.0 | 0.0 | 0.00 | 1.45 | 1.12 | 96 | 1011.4 |
| 20260509143009 | 18 | 137 | 0.0 | 0.0 | 0.00 | 1.45 | 1.12 | 96 | 1011.5 |
| 20260509142506 | 18 | 140 | 0.0 | 0.0 | 0.00 | 1.45 | 1.12 | 96 | 1011.6 |
| 20260509142008 | 18 | 142 | 0.0 | 0.0 | 0.00 | 1.45 | 1.12 | 96 | 1011.5 |
| 20260509141508 | 18 | 141 | 0.0 | 0.0 | 0.00 | 1.45 | 1.12 | 96 | 1011.6 |
| 20260509141010 | 18 | 157 | 0.0 | 0.0 | 0.00 | 1.45 | 1.12 | 96 | 1011.6 |
| 20260509140508 | 18 | 157 | 0.0 | 0.0 | 0.00 | 1.45 | 1.12 | 96 | 1011.6 |
| 20260509140010 | 18 | 157 | 0.0 | 0.0 | 0.00 | 1.45 | 1.12 | 96 | 1011.5 |
| 20260509135507 | 18 | 156 | 0.0 | 0.0 | 0.00 | 1.45 | 1.12 | 96 | 1011.5 |
| 20260509135009 | 18 | 156 | 0.0 | 0.0 | 0.00 | 1.45 | 1.12 | 96 | 1011.5 |
| 20260509134508 | 17 | 162 | 0.0 | 0.0 | 0.00 | 1.45 | 1.12 | 96 | 1011.6 |
| 20260509133506 | 17 | 165 | 0.0 | 0.0 | 0.00 | 1.45 | 1.12 | 96 | 1011.8 |
| 20260509133008 | 17 | 170 | 0.0 | 0.0 | 0.00 | 1.45 | 1.12 | 96 | 1011.8 |
| 20260509132507 | 17 | 170 | 0.0 | 0.0 | 0.00 | 1.45 | 1.12 | 96 | 1011.8 |
| 20260509132008 | 17 | 170 | 0.0 | 0.0 | 0.00 | 1.45 | 1.12 | 96 | 1011.5 |
| 20260509131508 | 17 | 170 | 0.0 | 0.0 | 0.00 | 1.45 | 1.12 | 96 | 1011.7 |
| 20260509130506 | 17 | 170 | 0.0 | 0.0 | 0.00 | 1.45 | 1.12 | 96 | 1011.6 |
| 20260509125006 | 17 | 170 | 0.0 | 0.0 | 0.00 | 1.45 | 1.12 | 95 | 1011.5 |
| 20260509124506 | 17 | 170 | 0.0 | 0.0 | 0.00 | 1.45 | 1.12 | 95 | 1011.3 |
| 20260509124007 | 17 | 170 | 0.0 | 0.0 | 0.00 | 1.45 | 1.12 | 95 | 1011.3 |
| 20260509123505 | 17 | 170 | 0.0 | 0.0 | 0.00 | 1.45 | 1.12 | 95 | 1011.4 |
| 20260509122506 | 17 | 170 | 0.0 | 0.0 | 0.00 | 1.45 | 1.12 | 95 | 1011.3 |
| 20260509122007 | 17 | 170 | 0.0 | 0.0 | 0.00 | 1.45 | 1.12 | 95 | 1011.3 |
| 20260509121506 | 17 | 170 | 0.0 | 0.0 | 0.00 | 1.45 | 1.12 | 95 | 1011.3 |
| 20260509121006 | 17 | 170 | 0.0 | 0.0 | 0.00 | 1.45 | 1.12 | 95 | 1011.3 |
| 20260509120506 | 17 | 170 | 0.0 | 0.0 | 0.00 | 1.45 | 1.12 | 95 | 1011.3 |
| 20260509120009 | 17 | 170 | 0.0 | 0.0 | 0.00 | 1.45 | 1.12 | 95 | 1011.2 |
| 20260509115507 | 17 | 170 | 0.0 | 0.0 | 0.00 | 1.45 | 1.12 | 95 | 1011.3 |
| 20260509114508 | 17 | 170 | 0.0 | 0.0 | 0.00 | 1.45 | 1.12 | 95 | 1011.3 |
| 20260509114010 | 17 | 170 | 0.0 | 0.0 | 0.00 | 1.45 | 1.12 | 95 | 1011.1 |
| 20260509113508 | 17 | 170 | 0.0 | 0.0 | 0.00 | 1.45 | 1.12 | 95 | 1010.9 |